User: anonymous   Login
Location: Harbor Island
(32.3990°N, 80.4435°W)
Time: 01:34:33
(UTC-04:00)
Language:

Cosmos 1455 - Orbit

View from above orbital plane
View from above orbital plane
View from above satellite
View from above satellite

Ground track
Ground track

The orbit data is extracted from the following two-line orbital elements,

1 14032U 83037A   17233.45735408  .00000728  00000-0  34936-4 0  9999
2 14032  82.5166  22.8222 0018767  56.2383 304.0635 15.17117445871276
Epoch (UTC): 21 August 2017 10:58:35
Eccentricity: 0.0018767
inclination: 82.5166°
perigee height: 501 km
apogee height: 527 km
right ascension of ascending node: 22.8222°
argument of perigee: 56.2383°
revolutions per day: 15.17117445
mean anomaly at epoch: 304.0635°
orbit number at epoch: 87127

The dashed part of the orbit path shows where the satellite is in the earth's shadow,  

DLR